sat.trackr.live / text

‹ back to catalog

STARLINK-37177

NORAD 68611 · 2026-073K

PAYLOAD ACTIVE UNKNOWN

§ Identity

Operator
Country
US
Launch date
2026-04-07
Launch site
AFWTR
Launch vehicle
Mass (kg)
RCS (m²)

Purposes: comms

External: N2YO · Heavens-Above · Gunter

§ Orbital elements

Epoch: 2026-09-19T19:14:12.328512Z

Period
93.91 min
Inclination
97.2853°
Eccentricity
0.0001765
Mean motion
15.33444726 rev/d
Perigee alt
464.3 km
Apogee alt
466.8 km
Semi-major
6,843.7 km
B*
3.8534e-4
RAAN
100.8315°
Arg perigee
88.1112°
Mean anomaly
272.0333°
Rev number
2,563

§ Raw data

STARLINK-371771 68611U 26073K   26262.80153158  .00012386  00000+0  38534-3 0  99942 68611  97.2853 100.8315 0001765  88.1112 272.0333 15.33444726 25631

JSON: /api/v1/satellites/68611 · /tle

For live sub-satellite position, see the globe view (requires WebGL).

§ Visibility from observer

Set your observer location to see the next 7 days of passes ≥ 10°. The values pass through the URL so the page stays shareable.

No JS? Fill the form by hand. The geolocation button needs JavaScript.